This is the latest recevied weather packets stored in our database for station/object IZ1UQG-N2. If no packets are shown the sender has not sent any weather packets the latest 10 day(s).
| Time | Temp. | Humidity | Pressure | Rain* | Wind** | Luminosity | Snow |
|---|---|---|---|---|---|---|---|
| 1777281584 | 21.11° C | 51% | 1016.5 hPa | 0 mm | - | 670 W/m² | - |
| 1777281524 | 21.11° C | 51% | 1016.6 hPa | 0 mm | - | 672 W/m² | - |
| 1777281464 | 21.11° C | 51% | 1016.5 hPa | 0 mm | - | 672 W/m² | - |
| 1777281460 | 21.11° C | 51% | 1016.5 hPa | 0 mm | - | 672 W/m² | - |
| 1777281404 | 21.11° C | 51% | 1016.5 hPa | 0 mm | - | 668 W/m² | - |
| 1777281343 | 21.11° C | 51% | 1016.4 hPa | 0 mm | - | 664 W/m² | - |
| 1777281285 | 21.11° C | 51% | 1016.6 hPa | 0 mm | - | 663 W/m² | - |
| 1777281281 | 21.11° C | 51% | 1016.6 hPa | 0 mm | - | 663 W/m² | - |
| 1777281224 | 21.11° C | 52% | 1016.6 hPa | 0 mm | - | 656 W/m² | - |
| 1777281164 | 21.11° C | 51% | 1016.6 hPa | 0 mm | - | 656 W/m² | - |
| 1777281104 | 20.56° C | 52% | 1016.5 hPa | 0 mm | - | 657 W/m² | - |
| 1777281101 | 20.56° C | 52% | 1016.5 hPa | 0 mm | - | 657 W/m² | - |
| 1777281045 | 20.56° C | 51% | 1016.6 hPa | 0 mm | - | 656 W/m² | - |
| 1777280984 | 20.56° C | 52% | 1016.7 hPa | 0 mm | - | 652 W/m² | - |
| 1777280923 | 20.56° C | 53% | 1016.7 hPa | 0 mm | - | 652 W/m² | - |
| 1777280921 | 20.56° C | 53% | 1016.7 hPa | 0 mm | - | 652 W/m² | - |
| 1777280865 | 20.56° C | 52% | 1016.7 hPa | 0 mm | - | 649 W/m² | - |
| 1777280805 | 20.56° C | 52% | 1016.7 hPa | 0 mm | - | 647 W/m² | - |
| 1777280745 | 20.56° C | 52% | 1016.7 hPa | 0 mm | - | 647 W/m² | - |
| 1777280740 | 20.56° C | 52% | 1016.7 hPa | 0 mm | - | 647 W/m² | - |
| 1777280684 | 20.56° C | 52% | 1016.7 hPa | 0 mm | - | 645 W/m² | - |
| 1777280624 | 20.56° C | 51% | 1016.8 hPa | 0 mm | - | 643 W/m² | - |
| 1777280563 | 20.56° C | 51% | 1016.7 hPa | 0 mm | - | 642 W/m² | - |
| 1777280561 | 20.56° C | 51% | 1016.7 hPa | 0 mm | - | 642 W/m² | - |
| 1777280505 | 20.56° C | 51% | 1016.8 hPa | 0 mm | - | 635 W/m² | - |
* Rain latest hour (hover to see other rain measurements)
** Current wind speed in m/s (hover to see current wind gust speed)